Regional Weather Roundup
Issued by NWS Cleveland, OH

Home | Current Version | Previous Version | Graphics & Text | Print | Product List | Glossary On
Versions: 1 2 3 4 5 6 7 8 9 10 11 12 13 14 15 16 17 18 19 20 21 22 23 24 25 26 27 28 29 30 31 32 33 34 35 36 37 38 39 40 41 42 43 44 45 46 47 48 49 50
000
ASUS41 KCLE 251002
RWRCLE
OHIO REGIONAL WEATHER ROUNDUP
NATIONAL WEATHER SERVICE CLEVELAND, OH
600 AM EDT SAT APR 25 2015

NOTE: "FAIR" INDICATES FEW OR NO CLOUDS BELOW 12,000 FEET WITH NO
SIGNIFICANT WEATHER AND/OR OBSTRUCTIONS TO VISIBILITY.

OHZ001>008-015>018-024>027-034-035-043-044-251100-
   NORTHWEST OHIO

CITY           SKY/WX    TMP DP  RH WIND       PRES   REMARKS
DEFIANCE       CLOUDY    42  37  82 E12       29.88F
FINDLAY        CLOUDY    42  35  76 E14       29.90F
TOLEDO EXPRESS CLOUDY    40  39  97 E9        29.92F
TOLEDO EXEC    CLOUDY    41  38  89 E7        29.94F
LIMA           CLOUDY    43  30  60 E18       29.87F
$$

OHZ009>014-019>023-028>033-038-089-251100-
   NORTHEAST OHIO

CITY           SKY/WX    TMP DP  RH WIND       PRES   REMARKS
CLE-HOPKINS    LGT RAIN  38  36  92 S7        29.99F
CLE-LAKEFRONT  CLOUDY    41  33  73 S3        29.97F
CUY CO. ARPT   NOT AVBL
LORAIN-ELYRIA  LGT RAIN  39  39 100 SE7       29.96F
ASHTABULA      CLOUDY    34  26  72 CALM      29.99S
AKRON-CANTON   LGT RAIN  37  33  85 NE17      29.95F FOG
WOOSTER        LGT RAIN  37  33  85 E6        29.96F
MANSFIELD      LGT RAIN  38  33  82 NE10      29.93F
YOUNGSTOWN     CLOUDY    36  24  62 CALM      29.97R
$$

OHZ042-051>053-060>062-070>072-077>081-251100-
  SOUTHWEST OHIO

CITY           SKY/WX    TMP DP  RH WIND       PRES   REMARKS
CINC-COVINGTON CLOUDY    48  40  73 SE6       29.81F
CINC-LUNKEN    CLOUDY    47  45  93 E3        29.84F
HAMILTON       CLOUDY    49  43  80 E7        29.83F
DAYTON         CLOUDY    49  38  65 E7        29.86F
WRIGHT-PAT AFB CLOUDY    49  38  65 E5        29.85F
DAYTON GENERAL CLOUDY    51  31  46 E8        29.83F
WILMINGTON     CLOUDY    49  31  49 SE8       29.85F
$$

OHZ036-037-039>041-045>050-054>059-063>069-073>076-082>088-251100-
  CENTRAL AND SOUTHEAST OHIO

CITY           SKY/WX    TMP DP  RH WIND       PRES   REMARKS
COLUMBUS       CLOUDY    46  26  45 E8        29.90R
OSU AIRPORT    CLOUDY    46  29  51 E5        29.90R
BOLTON FIELD   NOT AVBL
RICKENBACK AFB CLOUDY    46  33  59 NE9       29.89S
NEWARK         CLOUDY    46  24  42 NE5       29.91R
MARION         CLOUDY    44  29  55 E15       29.92S
LANCASTER      CLOUDY    47  31  53 E5        29.90S
ZANESVILLE     CLOUDY    44  21  40 E7        29.92S
NEW PHILLY     CLOUDY    43  21  41 NE7       29.97S
$$



USA.gov is the U.S. government's official web portal to all federal, state and local government web resources and services.